STARLINK-1707 (46359 NORAD) Tracking and Keplerian Element Data

This shows tracking and keplerian element data for the satellite.

Feedback or suggestion? Click here.




ElementValue
Catalog46359
NameSTARLINK-1707
Epoch Orbit1518
Epoch Day339.16667824
Epoch Year2020
RAAN340.4646
Inclination52.9975
Eccentricity0.0002027
Argument of Perigee25.299
Mean Anonmoly13.63
Mean Motion15.62822905
Decay Rate-0.00078081
L11 46359U 20062AL 20339.16667824 -.00078081 00000-0 -85266-3 0 9990
L22 46359 52.9975 340.4646 0002027 25.2990 13.6300 15.62822905 15189

Live tracking and technical data element details for STARLINK-1707 (NORAD 46359). STARLINK-1707 can be tracked NOW for your location showing map with azimuth and elevation plus other details from your city location.

Track the satellite on the map from your city or location and see movement details for azimuth, elevation, latitude, longitude, range, height, and movement on the map or in text.







IsCatalogInMostPopularTable: catalog: 46359, numindb: 24
Update: records affected: 1



GetName: 46359 STARLINK-1707

Hit Count: updated at: Sat, 05 Dec 2020 06:11:02 GMT